When you browse on this site, cookies collect data to enhance your experience and personalize the content and advertising you see.
Visit our Privacy Policy to learn more. By continuing to use the site, you agree to this use of cookies and data.
  • In Slovakia
  • List of Countries
  • For 7 days
  • Water Temperature
  • Satellite Maps
  • Weather Map
  • Weather Widgets
  • user-avatar
    Login

    Hourly Weather Studzionka

    Today, 17 December, Monday

    Time Temperature Precipitation Wind Pressure Humidity
    00:00 -5°C° 0 mm 2 mps 740 mmHg 84%
    01:00 -5°C° 0 mm 2 mps 740 mmHg 84%
    02:00 -5°C° 0 mm 2 mps 740 mmHg 83%
    03:00 -5°C° 0 mm 2 mps 740 mmHg 82%
    04:00 -4°C° 0 mm 2 mps 740 mmHg 82%
    05:00 -5°C° 0 mm 2 mps 740 mmHg 82%
    06:00 -5°C° 0 mm 2 mps 741 mmHg 83%
    07:00 -5°C° 0 mm 2 mps 741 mmHg 83%
    08:00 -4°C° 0 mm 2 mps 741 mmHg 81%
    09:00 -3°C° 0 mm 2 mps 742 mmHg 79%
    10:00 -2°C° 0 mm 2 mps 742 mmHg 78%
    11:00 -2°C° 0 mm 2 mps 742 mmHg 77%
    12:00 +1°C° 0 mm 1 mps 742 mmHg 77%
    13:00 +2°C° 0 mm 1 mps 742 mmHg 77%
    14:00 +1°C° 0 mm 1 mps 742 mmHg 80%
    15:00 0°C° 0 mm 1 mps 743 mmHg 84%
    16:00 -1°C° 0 mm 1 mps 743 mmHg 88%
    17:00 -1°C° 0 mm 1 mps 744 mmHg 88%
    18:00 -1°C° 0 mm 1 mps 744 mmHg 89%
    19:00 -1°C° 0 mm 1 mps 745 mmHg 89%
    20:00 -1°C° 0 mm 1 mps 745 mmHg 89%
    21:00 -1°C° 0 mm 1 mps 745 mmHg 89%
    22:00 -1°C° 0 mm 1 mps 746 mmHg 89%
    23:00 -1°C° 0 mm 1 mps 746 mmHg 89%

    Tomorrow, 18 December, Tuesday

    Time Temperature Precipitation Wind Pressure Humidity
    00:00 0°C° 0 mm 1 mps 746 mmHg 89%
    01:00 0°C° 0 mm 1 mps 746 mmHg 89%
    02:00 0°C° 0 mm 1 mps 746 mmHg 89%
    03:00 0°C° 0 mm 1 mps 746 mmHg 89%
    04:00 0°C° 0 mm 1 mps 746 mmHg 88%
    05:00 -1°C° 0 mm 1 mps 747 mmHg 88%
    06:00 -1°C° 0 mm 1 mps 747 mmHg 88%
    07:00 -1°C° 0 mm 1 mps 747 mmHg 88%
    08:00 0°C° 0 mm 1 mps 747 mmHg 86%
    09:00 +1°C° 0 mm 1 mps 747 mmHg 85%
    10:00 +2°C° 0 mm 1 mps 747 mmHg 83%
    11:00 +2°C° 0 mm 1 mps 747 mmHg 82%
    12:00 +3°C° 0 mm 1 mps 747 mmHg 81%
    13:00 +3°C° 0 mm 1 mps 746 mmHg 81%
    14:00 +2°C° 0 mm 1 mps 746 mmHg 83%
    15:00 +1°C° 0 mm 1 mps 746 mmHg 85%
    16:00 0°C° 0 mm 1 mps 746 mmHg 87%
    17:00 0°C° 0 mm 1 mps 746 mmHg 88%
    18:00 0°C° 0 mm 1 mps 746 mmHg 88%
    19:00 -2°C° 0 mm 2 mps 746 mmHg 89%
    20:00 -2°C° 0 mm 2 mps 746 mmHg 89%
    21:00 -1°C° 0 mm 1 mps 746 mmHg 89%
    22:00 -1°C° 0 mm 1 mps 746 mmHg 89%
    23:00 -3°C° 0 mm 2 mps 745 mmHg 88%

    Day after tomorrow, 19 December, Wednesday

    Time Temperature Precipitation Wind Pressure Humidity
    00:00 -3°C° 0 mm 2 mps 745 mmHg 88%
    01:00 -3°C° 0 mm 2 mps 745 mmHg 87%
    02:00 -3°C° 0 mm 2 mps 745 mmHg 87%
    03:00 -3°C° 0 mm 2 mps 744 mmHg 86%
    04:00 -3°C° 0 mm 2 mps 744 mmHg 85%
    05:00 -3°C° 0 mm 2 mps 744 mmHg 84%
    06:00 -3°C° 0 mm 2 mps 744 mmHg 83%
    07:00 -3°C° 0 mm 2 mps 744 mmHg 82%
    08:00 -3°C° 0 mm 2 mps 744 mmHg 79%
    09:00 -2°C° 0 mm 2 mps 744 mmHg 75%
    10:00 -1°C° 0 mm 2 mps 744 mmHg 72%
    11:00 +1°C° 0 mm 2 mps 744 mmHg 71%
    12:00 +1°C° 0 mm 2 mps 744 mmHg 70%
    13:00 +2°C° 0 mm 2 mps 743 mmHg 69%
    14:00 +1°C° 0 mm 2 mps 743 mmHg 72%
    15:00 -1°C° 0 mm 2 mps 743 mmHg 76%
    16:00 -2°C° 0 mm 2 mps 743 mmHg 79%
    17:00 -2°C° 0 mm 2 mps 743 mmHg 80%
    18:00 -2°C° 0 mm 2 mps 743 mmHg 81%
    19:00 -2°C° 0 mm 2 mps 743 mmHg 81%
    20:00 -3°C° 0 mm 2 mps 743 mmHg 81%
    21:00 -3°C° 0 mm 2 mps 743 mmHg 80%
    22:00 -3°C° 0 mm 2 mps 743 mmHg 79%
    23:00 -3°C° 0 mm 2 mps 742 mmHg 78%

    20 December, Thursday

    Time Temperature Precipitation Wind Pressure Humidity
    00:00 -3°C° 0 mm 2 mps 742 mmHg 78%
    01:00 -3°C° 0 mm 2 mps 742 mmHg 77%
    02:00 0°C° 0 mm 1 mps 742 mmHg 76%
    03:00 0°C° 0 mm 1 mps 742 mmHg 75%
    04:00 0°C° 0 mm 1 mps 741 mmHg 75%
    05:00 0°C° 0 mm 1 mps 741 mmHg 75%
    06:00 0°C° 0 mm 1 mps 741 mmHg 75%
    07:00 0°C° 0 mm 1 mps 741 mmHg 75%
    08:00 +1°C° 0 mm 1 mps 741 mmHg 75%
    09:00 -1°C° 0 mm 2 mps 742 mmHg 75%
    10:00 +1°C° 0 mm 2 mps 742 mmHg 75%
    11:00 +1°C° 0 mm 2 mps 741 mmHg 75%
    12:00 +1°C° 0 mm 2 mps 741 mmHg 75%
    13:00 +1°C° 0 mm 2 mps 741 mmHg 75%
    14:00 +1°C° 0 mm 2 mps 741 mmHg 78%
    15:00 +1°C° 0 mm 2 mps 741 mmHg 81%
    16:00 -1°C° 0 mm 2 mps 741 mmHg 83%
    17:00 -1°C° 0.1 mm 2 mps 741 mmHg 85%
    18:00 -1°C° 0.1 mm 2 mps 741 mmHg 86%
    19:00 -1°C° 0.1 mm 2 mps 741 mmHg 87%
    20:00 -1°C° 0.1 mm 2 mps 741 mmHg 88%
    21:00 -1°C° 0.1 mm 2 mps 741 mmHg 89%
    22:00 -1°C° 0.1 mm 2 mps 741 mmHg 90%
    23:00 -1°C° 0.1 mm 2 mps 741 mmHg 90%

    21 December, Friday

    Time Temperature Precipitation Wind Pressure Humidity
    00:00 -1°C° 0.1 mm 2 mps 741 mmHg 90%
    01:00 -1°C° 0.1 mm 2 mps 741 mmHg 90%
    02:00 -1°C° 0.2 mm 2 mps 740 mmHg 91%
    03:00 -1°C° 0.2 mm 2 mps 740 mmHg 91%
    04:00 -1°C° 0.2 mm 2 mps 740 mmHg 92%
    05:00 -1°C° 0.3 mm 2 mps 740 mmHg 93%
    06:00 -1°C° 0.3 mm 2 mps 740 mmHg 94%
    07:00 -1°C° 0.3 mm 2 mps 740 mmHg 95%
    08:00 -1°C° 0.4 mm 2 mps 740 mmHg 94%
    09:00 -1°C° 0.4 mm 2 mps 740 mmHg 93%
    10:00 -1°C° 0.4 mm 2 mps 740 mmHg 93%
    11:00 +1°C° 0.3 mm 2 mps 740 mmHg 93%
    12:00 +1°C° 0.3 mm 2 mps 740 mmHg 93%
    13:00 +1°C° 0.3 mm 2 mps 740 mmHg 93%
    14:00 +1°C° 0.1 mm 2 mps 740 mmHg 93%
    15:00 +1°C° 0.1 mm 2 mps 740 mmHg 93%
    16:00 -1°C° 0.1 mm 2 mps 740 mmHg 93%
    17:00 -1°C° 0 mm 2 mps 740 mmHg 93%
    18:00 -1°C° 0 mm 2 mps 739 mmHg 92%
    19:00 -2°C° 0 mm 2 mps 739 mmHg 92%
    20:00 -2°C° 0 mm 2 mps 739 mmHg 92%
    21:00 -1°C° 0 mm 2 mps 739 mmHg 91%
    22:00 -1°C° 0 mm 2 mps 739 mmHg 91%
    23:00 -1°C° 0 mm 2 mps 738 mmHg 90%

    22 December, Saturday

    Time Temperature Precipitation Wind Pressure Humidity
    00:00 -1°C° 0 mm 3 mps 738 mmHg 89%
    01:00 0°C° 0 mm 3 mps 737 mmHg 88%
    02:00 0°C° 0.2 mm 3 mps 737 mmHg 87%
    03:00 0°C° 0.2 mm 3 mps 736 mmHg 87%
    04:00 0°C° 0.2 mm 3 mps 736 mmHg 87%
    05:00 0°C° 0.7 mm 3 mps 736 mmHg 87%
    06:00 0°C° 0.7 mm 4 mps 735 mmHg 88%
    07:00 0°C° 0.7 mm 4 mps 735 mmHg 89%
    08:00 0°C° 0.5 mm 4 mps 735 mmHg 90%
    09:00 +1°C° 0.5 mm 5 mps 735 mmHg 91%
    10:00 +1°C° 0.5 mm 5 mps 735 mmHg 92%
    11:00 +1°C° 0.2 mm 5 mps 735 mmHg 92%
    12:00 +2°C° 0.2 mm 5 mps 735 mmHg 92%
    13:00 +2°C° 0.2 mm 5 mps 735 mmHg 92%
    14:00 +3°C° 0.2 mm 4 mps 736 mmHg 92%
    15:00 +3°C° 0.2 mm 4 mps 736 mmHg 92%
    16:00 +1°C° 0.2 mm 4 mps 736 mmHg 92%
    17:00 +1°C° 0.4 mm 4 mps 736 mmHg 93%
    18:00 +1°C° 0.4 mm 4 mps 736 mmHg 93%
    19:00 +1°C° 0.4 mm 4 mps 736 mmHg 93%
    20:00 +3°C° 0.3 mm 4 mps 737 mmHg 93%
    21:00 +3°C° 0.3 mm 4 mps 737 mmHg 93%
    22:00 +3°C° 0.3 mm 4 mps 737 mmHg 93%
    23:00 +3°C° 0.5 mm 4 mps 737 mmHg 93%
    Show more